Stations météo

réclame
Mon MeteoGroup
Greifswalder Oie, Allemagne (10097): Température de l'air & dewpoint: 10.11.2018 00:00:00 - 16.11.2018 00:00:00 (CET)Greifswalder Oie, Allemagne (10097): Température de l'air 5cm & Température de l'air -5cm: 10.11.2018 00:00:00 - 16.11.2018 00:00:00 (CET)Greifswalder Oie, Allemagne (10097): Température de l'air -20cm & Température de l'air -100cm: 10.11.2018 00:00:00 - 16.11.2018 00:00:00 (CET)Greifswalder Oie, Allemagne (10097): water temperature: 10.11.2018 00:00:00 - 16.11.2018 00:00:00 (CET)Greifswalder Oie, Allemagne (10097): Vitesse du vent & gusts: 10.11.2018 00:00:00 - 16.11.2018 00:00:00 (CET)Greifswalder Oie, Allemagne (10097): Direction du vent: 10.11.2018 00:00:00 - 16.11.2018 00:00:00 (CET)Greifswalder Oie, Allemagne (10097): reduced air pressure: 10.11.2018 00:00:00 - 16.11.2018 00:00:00 (CET)Greifswalder Oie, Allemagne (10097): visibility: 10.11.2018 00:00:00 - 16.11.2018 00:00:00 (CET)Greifswalder Oie, Allemagne (10097): Ensoleillement: 10.11.2018 00:00:00 - 16.11.2018 00:00:00 (CET)Greifswalder Oie, Allemagne (10097): Quantités de précipitations: 10.11.2018 00:00:00 - 16.11.2018 00:00:00 (CET)
Date & Time tt [°C] td [°C] tt 5cm [°C] tt -5cm [°C] tt -20cm [°C] tt -100cm [°C] tw [°C] ff [km/h] ff [knt] fx [km/h] fx [knt] dd ppp [hPa] vv [km] sd [min] rr [mm]
16.11.2018 00:00:00 8,3 4,5 6,7 6,4 8,5 10,9 9,0 26 14 38 20 SE 1033,9 18 0 0,0
15.11.2018 23:00:00 8,5 5,0 7,0 6,6 8,6 10,9 9,1 24 13 35 19 SSE 1033,4 18 0 0,0
15.11.2018 22:00:00 8,7 5,5 7,3 6,8 8,7 10,9 9,1 27 14 40 21 SE 1032,9 17 0 0,0
15.11.2018 21:00:00 8,7 5,9 7,3 7,0 8,8 10,9 9,4 23 12 34 18 SE 1032,8 15 0 0,0
15.11.2018 20:00:00 8,7 5,8 7,3 7,1 9,0 10,9 9,3 24 13 34 18 SE 1032,5 15 0 0,0
15.11.2018 19:00:00 8,5 6,7 7,1 7,4 9,2 10,9 9,3 22 12 36 19 SE 1032,1 10 0 0,0
15.11.2018 18:00:00 8,5 6,7 7,2 7,6 9,3 10,9 9,5 23 13 33 18 SE 1031,9 7 0 0,0
15.11.2018 17:00:00 8,3 6,9 7,1 8,0 9,5 10,9 9,5 25 14 32 17 SE 1031,6 5 0 0,0
15.11.2018 16:00:00 8,0 7,0 7,1 8,9 9,6 10,9 9,6 21 12 33 18 SE 1031,5 4,7 24 0,0
15.11.2018 15:00:00 7,9 7,5 8,0 10,0 9,5 10,9 9,6 21 11 32 17 SE 1031,4 3,1 29 0,0
15.11.2018 14:00:00 8,9 7,3 10,4 11,1 9,3 10,9 9,6 18 10 25 13 SE 1031,2 7 60 0,0
15.11.2018 13:00:00 9,8 6,8 11,8 10,9 9,0 10,9 9,5 15 8 23 13 S 1031,2 11 60 0,0
15.11.2018 12:00:00 9,2 7,1 10,3 9,7 8,8 10,9 9,3 14 7 23 12 SSE 1031,3 8 2 0,0
15.11.2018 11:00:00 8,4 6,9 9,1 8,8 8,7 10,9 9,1 14 8 21 11 S 1031,3 6 0 0,0
15.11.2018 10:00:00 8,4 7,1 8,9 8,4 8,6 10,9 9,1 12 7 20 11 S 1031,2 6 20 0,0
15.11.2018 09:00:00 8,5 7,2 8,3 7,9 8,5 10,9 9,1 13 7 22 12 S 1030,6 6 27 0,0
15.11.2018 08:00:00 8,4 7,2 8,0 7,5 8,6 10,9 9,2 9 5 17 9 SSE 1030,3 8 0 0,0
15.11.2018 07:00:00 8,1 7,2 7,4 7,2 8,6 10,9 9,1 9 5 15 8 SSE 1030,1 6 0 0,0
15.11.2018 06:00:00 7,8 6,9 7,1 7,2 8,7 10,9 9,3 11 6 16 8 S 1029,7 6 0 0,0
15.11.2018 05:00:00 7,8 6,9 7,0 7,4 8,7 10,9 9,4 9 5 15 8 S 1029,6 6 0 0,0
15.11.2018 04:00:00 8,0 7,1 7,4 7,5 8,8 10,9 9,4 11 6 16 8 S 1029,6 6 0 0,0
15.11.2018 03:00:00 7,9 6,9 7,3 7,5 8,8 10,9 9,4 13 7 19 11 SSW 1029,4 7 0 0,0
15.11.2018 02:00:00 8,0 6,9 7,4 7,5 8,9 10,9 9,3 15 8 17 9 SSW 1029,5 8 0 0,0
15.11.2018 01:00:00 7,9 6,8 7,1 7,6 9,0 10,9 9,3 12 7 20 11 SSW 1029,4 8 0 0,0
15.11.2018 00:00:00 8,0 6,7 7,3 7,7 9,1 10,9 9,4 10 5 18 10 S 1029,5 8 0 0,0
14.11.2018 23:00:00 8,1 6,7 7,6 7,8 9,1 10,9 9,4 15 8 18 10 SSW 1029,4 8 0 0,0
14.11.2018 22:00:00 8,1 6,9 7,5 7,8 9,2 10,9 9,4 14 7 16 9 SW 1029,3 7 0 0,0
14.11.2018 21:00:00 8,1 6,8 7,4 7,8 9,4 10,9 9,5 12 7 24 13 SW 1029,3 8 0 0,0
14.11.2018 20:00:00 8,3 6,9 7,4 8,0 9,5 11,0 9,7 16 8 21 12 SW 1028,9 9 0 0,0
14.11.2018 19:00:00 8,6 7,0 7,9 8,4 9,6 11,0 9,7 21 11 25 13 WSW 1028,8 10 0 0,0
14.11.2018 18:00:00 9,1 8,0 8,3 8,7 9,7 11,0 9,8 16 8 26 14 WSW 1028,7 7 0 0,0
14.11.2018 17:00:00 9,3 7,9 8,8 8,8 9,8 11,0 9,5 22 12 30 16 WSW 1028,7 8 0 0,0
14.11.2018 16:00:00 9,3 7,9 8,8 9,4 9,8 11,0 9,5 24 13 29 16 WSW 1028,4 7 0 0,0
14.11.2018 15:00:00 9,6 8,2 9,3 9,8 9,7 11,0 9,6 19 11 26 14 WSW 1028,1 11 0 0,0
14.11.2018 14:00:00 9,7 8,2 9,7 10,0 9,7 11,0 9,6 20 11 29 15 WSW 1027,8 15 0 0,0
14.11.2018 13:00:00 9,7 8,3 9,9 9,9 9,6 11,0 9,6 24 13 30 16 W 1027,9 15 0 0,0
14.11.2018 12:00:00 9,5 8,1 9,6 9,7 9,5 11,0 9,6 28 15 34 19 WSW 1027,5 19 0 0,0
14.11.2018 11:00:00 9,4 8,1 9,5 9,4 9,4 11,0 9,6 22 12 35 19 WSW 1027,3 17 0 0,0
14.11.2018 10:00:00 9,3 8,1 9,3 9,1 9,4 11,0 9,6 30 16 37 20 WSW 1026,8 17 0 0,0
14.11.2018 09:00:00 9,2 8,0 8,8 8,9 9,4 11,0 9,6 34 18 40 22 W 1026,2 16 0 0,1
14.11.2018 08:00:00 9,1 8,2 8,7 8,8 9,3 11,0 9,6 30 16 37 20 W 1025,6 6 0 0,4
14.11.2018 07:00:00 9,0 8,2 8,7 8,8 9,3 11,0 9,6 33 18 45 25 W 1024,9 5 0 0,0
14.11.2018 06:00:00 9,2 8,0 8,7 8,7 9,3 11,0 9,9 36 19 46 25 WSW 1024,3 6 0 0,0
14.11.2018 05:00:00 9,4 7,9 9,3 8,7 9,3 11,0 9,8 38 20 48 26 WSW 1024,0 23 0 0,0
14.11.2018 04:00:00 9,5 7,9 9,2 8,6 9,4 11,0 9,7 41 22 50 27 WSW 1023,6 18 0 0,0
14.11.2018 03:00:00 9,5 7,8 9,3 8,6 9,4 11,0 9,6 39 21 51 28 WSW 1023,2 22 0 0,0
14.11.2018 02:00:00 9,2 7,7 8,8 8,4 9,4 11,0 9,6 40 22 52 28 WSW 1022,9 16 0 0,0
14.11.2018 01:00:00 9,2 7,5 8,8 8,6 9,5 11,0 9,7 39 21 49 26 WSW 1022,4 14 0 0,0
14.11.2018 00:00:00 9,4 7,5 9,1 8,5 9,5 11,0 9,7 40 22 50 27 WSW 1022,2 15 0 0,0
13.11.2018 23:00:00 9,6 7,5 9,2 8,6 9,6 11,0 9,8 41 22 51 28 WSW 1021,8 17 0 0,0
13.11.2018 22:00:00 9,5 7,6 9,1 8,5 9,7 10,9 9,7 38 20 46 25 WSW 1021,4 19 0 0,0
13.11.2018 21:00:00 9,3 7,5 8,7 8,5 9,8 10,9 10,0 34 18 46 25 WSW 1021,3 22 0 0,0
13.11.2018 20:00:00 9,4 7,7 8,7 8,9 9,8 10,9 9,9 33 18 41 22 WSW 1021,1 29 0 0,1
13.11.2018 19:00:00 8,8 7,9 8,3 9,0 9,9 10,9 9,9 29 16 63 34 WSW 1021,1 7 0 2,4
13.11.2018 18:00:00 10,1 9,1 9,7 9,3 10,0 10,9 9,8 25 13 31 17 SW 1020,5 8 0 0,1
13.11.2018 17:00:00 10,1 9,0 9,3 9,4 10,0 10,9 9,8 26 14 36 19 SSW 1020,0 13 0 0,0
13.11.2018 16:00:00 10,1 9,0 9,6 9,8 10,0 10,9 9,9 25 14 31 17 SSW 1019,8 14 0 0,2
13.11.2018 15:00:00 10,1 8,9 9,7 9,9 10,0 10,9 9,9 23 12 29 16 SSW 1019,4 13 0 0,8
13.11.2018 14:00:00 9,9 8,9 9,6 10,0 10,0 10,9 9,9 23 13 27 15 SW 1019,7 8 0 0,4
13.11.2018 13:00:00 10,0 9,1 9,8 9,9 9,9 10,9 9,8 22 12 27 15 SSW 1019,4 7 0 0,5
13.11.2018 12:00:00 9,9 9,0 9,7 10,0 9,9 10,9 9,8 18 10 21 12 SSW 1019,3 6 0 0,2
13.11.2018 11:00:00 10,0 9,3 9,8 9,9 9,8 10,9 9,8 15 8 21 11 SW 1019,4 6 0 0,1
13.11.2018 10:00:00 10,0 9,2 9,8 9,8 9,8 10,9 9,8 16 9 20 11 WSW 1019,5 4,1 0 0,1
13.11.2018 09:00:00 10,1 9,2 9,8 9,6 9,8 10,9 9,8 13 7 17 9 SW 1019,0 5 0 0,0
13.11.2018 08:00:00 10,2 9,1 9,9 9,4 9,8 10,9 9,8 15 8 17 9 SW 1018,8 7 0 0,0
13.11.2018 07:00:00 10,3 9,1 10,0 9,4 9,8 10,9 9,9 15 8 18 10 WSW 1018,2 8 0 0,0
13.11.2018 06:00:00 10,2 9,1 9,9 9,4 9,8 10,9 9,8 12 6 21 12 SSW 1017,9 9 0 0,0
13.11.2018 05:00:00 10,3 9,2 10,0 9,4 9,8 10,9 9,9 18 10 21 11 WSW 1017,6 8 0 0,0
13.11.2018 04:00:00 10,3 9,1 9,9 9,5 9,8 10,9 9,9 18 10 25 14 WSW 1017,5 11 0 0,0
13.11.2018 03:00:00 10,3 9,1 9,9 9,7 9,8 10,9 9,8 20 11 29 15 WSW 1017,3 14 0 0,0
13.11.2018 02:00:00 10,8 9,3 10,6 9,7 9,8 10,9 9,9 27 15 36 20 WNW 1016,6 27 0 0,0
13.11.2018 01:00:00 11,1 9,4 10,9 9,7 9,8 10,9 9,9 25 14 32 18 WSW 1016,0 19 0 0,0
13.11.2018 00:00:00 11,2 9,1 10,5 9,4 9,8 10,9 9,9 21 11 29 15 SSW 1015,4 18 0 0,0
12.11.2018 23:00:00 11,3 8,9 10,5 9,5 9,8 10,9 9,9 23 13 33 18 S 1015,0 15 0 0,0
12.11.2018 22:00:00 11,4 8,9 10,7 9,5 9,8 10,9 9,9 23 12 35 19 S 1014,5 14 0 0,1
12.11.2018 21:00:00 11,4 9,0 10,4 9,5 9,8 10,9 10,0 21 11 34 19 S 1014,2 14 0 0,0
12.11.2018 20:00:00 11,5 9,0 10,6 9,4 9,8 10,9 9,9 22 12 32 17 S 1013,9 16 0 0,0
12.11.2018 19:00:00 11,5 9,2 10,7 9,4 9,8 10,9 10,0 20 11 32 17 S 1014,0 17 0 0,0
12.11.2018 18:00:00 11,3 9,2 10,3 9,5 9,9 10,9 10,0 21 11 31 17 S 1014,2 16 0 0,0
12.11.2018 17:00:00 10,8 9,2 10,0 9,4 9,9 11,0 9,9 17 9 32 17 SSE 1014,3 11 0 0,0
12.11.2018 16:00:00 10,1 9,1 9,5 10,1 9,9 11,0 9,8 18 10 25 14 SE 1014,6 4,3 13 0,0
12.11.2018 15:00:00 9,8 9,0 9,7 10,2 9,9 11,0 9,8 14 7 20 11 ESE 1015,4 3,1 0 0,0
12.11.2018 14:00:00 9,8 8,9 9,6 10,1 9,8 11,0 9,8 13 7 29 15 SE 1016,0 6 0 0,0
12.11.2018 13:00:00 9,9 9,1 10,0 10,2 9,7 11,0 9,8 16 8 27 15 SSE 1016,8 5 0 0,0
12.11.2018 12:00:00 9,8 8,8 9,9 10,0 9,6 11,0 9,8 17 9 29 15 SSE 1016,7 6 0 0,1
12.11.2018 11:00:00 9,8 8,9 10,0 10,0 9,5 11,0 9,8 11 6 23 13 S 1017,3 6 0 0,0
12.11.2018 10:00:00 9,8 8,7 10,0 9,7 9,4 11,0 9,7 16 8 26 14 S 1017,2 8 2 0,0
12.11.2018 09:00:00 9,8 8,9 9,8 9,2 9,4 11,0 9,6 14 8 24 13 S 1017,0 9 0 0,0
12.11.2018 08:00:00 9,9 9,2 9,5 9,1 9,4 11,0 9,6 14 8 25 14 S 1016,6 7 0 0,0
12.11.2018 07:00:00 10,1 9,3 9,5 9,2 9,3 11,0 9,7 19 10 29 16 S 1016,0 9 0 0,0
12.11.2018 06:00:00 10,2 9,3 9,5 9,2 9,3 11,0 9,8 20 11 27 15 S 1015,6 11 0 0,0
12.11.2018 05:00:00 10,4 9,5 9,8 9,2 9,2 11,0 9,8 19 10 31 17 S 1015,2 11 0 0,0
12.11.2018 04:00:00 10,4 9,4 10,0 9,1 9,2 11,0 9,7 20 11 32 18 S 1015,0 12 0 0,0
12.11.2018 03:00:00 10,1 8,9 9,8 8,9 9,2 11,0 9,6 26 14 38 21 S 1014,5 10 0 0,0
12.11.2018 02:00:00 9,6 8,4 9,1 8,7 9,1 11,0 9,7 22 12 35 19 S 1013,8 9 0 0,0
12.11.2018 01:00:00 9,5 8,4 8,9 8,6 9,1 11,0 9,6 18 10 33 18 S 1013,5 7 0 0,0
12.11.2018 00:00:00 9,3 8,3 8,6 8,4 9,1 11,0 9,6 19 11 33 18 S 1013,2 6 0 0,0
11.11.2018 23:00:00 9,0 8,0 8,5 8,2 9,2 11,0 9,7 23 12 36 19 S 1013,3 5 0 0,0
11.11.2018 22:00:00 9,0 8,0 8,4 8,2 9,2 11,0 9,5 22 12 34 19 S 1012,9 5 0 0,0
11.11.2018 21:00:00 8,8 8,0 7,9 8,4 9,3 11,0 9,8 21 12 34 18 S 1012,5 3,7 0 0,0
11.11.2018 20:00:00 8,9 8,1 8,4 8,5 9,3 11,0 9,7 23 13 41 22 S 1012,5 3,5 0 0,0
11.11.2018 19:00:00 8,8 8,0 8,2 8,6 9,3 11,0 9,6 24 13 42 23 S 1012,3 4,4 0 0,0
11.11.2018 18:00:00 9,0 8,2 8,7 8,6 9,4 11,0 9,6 23 12 39 21 S 1012,3 3,9 0 0,0
11.11.2018 17:00:00 9,3 8,3 8,7 8,8 9,4 11,0 9,6 21 11 34 19 S 1011,4 4,7 0 0,2
11.11.2018 16:00:00 9,0 8,1 8,6 9,0 9,4 11,0 9,6 23 13 40 22 S 1011,4 3,4 0 0,2
11.11.2018 15:00:00 9,0 7,9 8,7 9,1 9,3 11,0 9,6 22 12 37 20 S 1010,9 4,5 0 0,1
11.11.2018 14:00:00 8,8 7,8 8,7 9,0 9,3 11,0 9,6 21 12 35 19 S 1010,9 3,1 0 0,8
11.11.2018 13:00:00 8,7 7,3 8,7 9,2 9,2 11,0 9,6 22 12 39 21 S 1010,7 4,0 0 0,0
11.11.2018 12:00:00 8,8 7,3 8,8 9,2 9,2 11,0 9,5 18 10 29 16 SSE 1010,5 4,0 0 0,0
11.11.2018 11:00:00 8,4 7,2 8,2 8,7 9,1 11,0 9,5 18 10 33 18 SSE 1010,4 3,9 0 0,0
11.11.2018 10:00:00 8,4 7,4 8,1 8,6 9,1 11,0 9,4 18 10 33 18 SSE 1010,6 3,0 0 0,3
11.11.2018 09:00:00 8,3 7,3 8,4 8,5 9,1 11,0 9,3 20 11 33 18 SSE 1010,4 3,0 0 0,0
11.11.2018 08:00:00 8,2 7,3 8,1 8,2 9,1 11,0 9,3 20 11 37 20 SSE 1010,5 2,9 0 0,0
11.11.2018 07:00:00 8,3 7,3 8,0 8,1 9,2 11,0 9,4 20 11 36 19 S 1010,0 3,1 0 0,0
11.11.2018 06:00:00 8,5 7,4 8,2 8,3 9,2 11,0 9,5 19 11 37 20 SSE 1009,7 2,8 0 0,0
11.11.2018 05:00:00 8,5 7,4 8,4 8,3 9,2 11,0 9,5 18 10 34 18 SSE 1010,0 2,9 0 0,0
11.11.2018 04:00:00 8,7 7,7 8,3 8,3 9,3 11,0 9,4 19 11 35 19 SSE 1009,7 2,8 0 0,0
11.11.2018 03:00:00 8,7 7,7 8,3 8,4 9,3 11,0 9,5 21 12 34 18 SSE 1009,6 2,8 0 0,0
11.11.2018 02:00:00 8,8 7,7 8,4 8,5 9,3 11,0 9,5 18 10 37 20 SSE 1009,8 2,9 0 0,0
11.11.2018 01:00:00 9,1 8,0 8,7 8,5 9,4 11,0 9,5 21 11 34 18 S 1010,0 2,8 0 0,0
11.11.2018 00:00:00 9,1 8,2 8,6 8,4 9,4 11,0 9,6 19 11 34 18 SSE 1010,0 2,4 0 0,0
10.11.2018 23:00:00 9,4 8,2 8,4 8,7 9,5 11,0 9,7 17 9 30 16 S 1010,2 2,4 0 0,0
10.11.2018 22:00:00 9,9 8,7 9,3 8,9 9,5 11,0 9,7 16 8 31 17 SSE 1010,0 2,6 0 0,0
10.11.2018 21:00:00 10,3 8,4 9,6 9,0 9,5 11,0 9,8 19 10 33 18 SSE 1010,1 4,4 0 0,0
10.11.2018 20:00:00 10,2 8,5 9,6 9,0 9,5 11,0 9,9 20 11 35 19 SSE 1010,1 3,9 0 0,0
10.11.2018 19:00:00 10,0 8,7 9,5 9,0 9,5 11,0 9,7 25 14 38 21 SE 1010,3 3,4 0 0,0
10.11.2018 18:00:00 9,9 8,5 9,5 9,0 9,5 11,0 9,7 27 14 44 24 SE 1010,1 4,0 0 0,0
10.11.2018 17:00:00 9,7 8,3 9,2 8,9 9,5 11,0 9,7 26 14 37 20 SE 1009,9 2,3 0 0,0
10.11.2018 16:00:00 9,2 7,8 8,9 9,2 9,5 11,0 9,7 19 10 33 18 SSE 1010,3 4,1 0 0,0
10.11.2018 15:00:00 9,1 7,9 9,2 9,5 9,5 11,0 9,7 19 11 36 20 SSE 1010,2 3,8 0 0,0
10.11.2018 14:00:00 8,8 7,6 9,2 9,5 9,4 11,0 9,7 24 13 37 20 SSE 1010,2 4,2 0 0,0
10.11.2018 13:00:00 8,5 7,5 9,2 9,5 9,3 11,0 9,7 21 11 32 18 SSE 1010,4 4,4 0 0,0
10.11.2018 12:00:00 8,0 7,3 8,7 9,2 9,2 11,0 9,6 18 10 30 16 SSE 1011,0 3,7 0 0,0
10.11.2018 11:00:00 7,8 7,2 8,3 9,0 9,2 11,0 9,6 16 9 31 17 S 1011,7 3,0 0 0,0
10.11.2018 10:00:00 8,2 7,3 8,6 8,8 9,1 11,0 9,5 19 10 37 20 S 1011,6 2,8 0 0,0
10.11.2018 09:00:00 8,6 7,4 8,8 8,5 9,1 11,0 9,5 17 9 27 15 SSE 1011,4 2,8 0 0,0
10.11.2018 08:00:00 8,8 7,7 8,5 8,3 9,1 11,0 9,5 17 9 30 16 S 1011,4 2,8 0 0,0
10.11.2018 07:00:00 8,7 7,9 8,2 8,1 9,2 11,0 9,6 16 9 29 16 SSE 1011,5 2,7 0 0,0
10.11.2018 06:00:00 8,1 7,4 7,8 8,2 9,2 11,0 9,6 19 10 31 17 SSE 1011,6 3,6 0 0,0
10.11.2018 05:00:00 7,9 7,2 7,8 8,3 9,2 11,0 9,6 16 9 28 15 SSE 1012,3 3,6 0 0,0
10.11.2018 04:00:00 7,7 7,2 7,7 8,3 9,3 11,0 9,7 16 9 28 15 S 1012,9 2,0 0 0,0
10.11.2018 03:00:00 8,0 7,5 7,9 8,4 9,3 11,0 9,7 19 11 30 16 SSE 1013,0 2,5 0 0,0
10.11.2018 02:00:00 8,0 7,4 7,9 8,4 9,3 11,0 9,8 19 10 29 16 SSE 1013,4 4,6 0 0,0
10.11.2018 01:00:00 7,8 7,4 7,7 8,4 9,4 11,0 9,7 16 8 27 14 SSE 1013,8 2,8 0 0,0
10.11.2018 00:00:00 7,8 7,4 7,8 8,4 9,4 11,0 9,8 16 9 27 15 SSE 1014,2 3,2 0 0,0

tt = Température de l'air
td = dewpoint
tt 5cm = Température de l'air 5cm
tt -5cm = Température de l'air -5cm
tt -20cm = Température de l'air -20cm
tt -100cm = Température de l'air -100cm
tw = water temperature
ff = Vitesse du vent
fx = gusts
dd = Direction du vent
ppp = reduced air pressure
vv = visibility
sd = Ensoleillement
rr = Quantités de précipitations

stations d'obs. à proximité